Location: Unspecified
(0.0000°N, 0.0000°E)
Time: 01:25:35
(UTC+00:00)

OTV 5 (USA 277) - Pass Details

Date: 18 July 2019
Orbit: 310 x 324 km, 54.5° (Epoch: 17 October)

Event Time Altitude Azimuth Distance (km) Brightness Sun altitude
Rises 19:24:37 0° 348° (NNW) 2,053 ? -18.2°
Reaches altitude 10° 19:26:51 10° 5° (N) 1,226 ? -18.8°
Enters shadow 19:27:33 14° 17° (NNE) 1,016 ? -18.9°
